Location: Unspecified
(39.0658°N, 0.0000°E)
Time: 04:20:47
(UTC+00:00)

SR - Visible Passes

Search period start: 04 April 2026 00:00
Search period end: 14 April 2026 00:00
Orbit: 571 x 850 km, 66.7° (Epoch: 29 March)

Date Brightness Start Highest point End Pass type
(mag) Time Alt. Az. Time Alt. Az. Time Alt. Az.
4 Apr ? 00:44:33 10° N 00:45:33 13° NNE 00:45:33 13° NNE visible
5 Apr ? 01:29:54 10° NNW 01:30:22 12° NNW 01:30:22 12° NNW visible
6 Apr ? 00:35:28 10° N 00:36:19 13° N 00:36:19 13° N visible
6 Apr ? 23:41:59 10° NNE 23:42:20 11° NNE 23:42:20 11° NNE visible
7 Apr ? 01:21:16 10° NNW 01:21:20 10° NNW 01:21:20 10° NNW visible
8 Apr ? 00:26:36 10° N 00:27:24 14° N 00:27:24 14° N visible
8 Apr ? 23:32:27 10° N 23:33:30 13° NNE 23:33:30 13° NNE visible
10 Apr ? 00:17:50 10° NNW 00:18:40 14° NNW 00:18:40 14° NNW visible
10 Apr ? 23:23:22 10° N 23:24:50 16° N 23:24:50 16° N visible
11 Apr ? 22:29:45 10° NNE 22:31:02 12° NNE 22:31:02 12° NNE visible
12 Apr ? 00:09:11 10° NNW 00:10:03 15° NNW 00:10:03 15° NNW visible
12 Apr ? 23:14:27 10° N 23:16:16 19° N 23:16:16 19° N visible
13 Apr ? 22:20:16 10° N 22:22:31 16° NNE 22:22:31 16° NNE visible
